1484740801.2,49174,5.31,73800.0,-3.37,-40.53,-40.85,0,*53
1484740802.43,49175,5.31,73804.0,-3.37,-40.65,-41.17,0,*5D
1484740803.68,49176,5.38,73804.8,-3.39,-40.79,-41.23,0,*5A
1484740804.95,49177,5.31,73806.3,-3.37,-40.59,-41.03,0,*55
1484740806.21,49178,5.31,73806.3,-3.37,-41.23,-41.73,0,*51
1484740807.42,49179,5.31,73806.5,-3.39,-41.41,-41.87,0,*51
1484740808.67,49180,5.31,73806.8,-3.43,-41.49,-41.93,0,*57
1484740809.93,49181,5.38,73804.3,-3.43,-41.29,-41.67,0,*5B
1484740811.16,49182,5.31,73804.0,-3.43,-41.03,-41.49,0,*5C
1484740812.42,49183,5.31,73802.8,-3.43,-41.23,-41.61,0,*55
1484740813.65,49184,5.31,73804.3,-3.45,-41.11,-41.67,0,*53
1484740814.87,49185,5.31,73804.3,-3.45,-41.49,-41.93,0,*54
1484740816.13,49186,5.31,73806.3,-3.47,-41.73,-42.19,0,*5D
1484740817.38,49187,5.31,73806.0,-3.47,-41.29,-41.55,0,*58
1484740818.61,49188,5.31,73804.5,-3.49,-41.23,-41.61,0,*54
1484740819.87,49189,5.31,73806.8,-3.47,-40.91,-41.55,0,*54
1484740821.11,49190,5.38,73804.0,-3.49,-41.03,-41.55,0,*58
1484740822.37,49191,5.38,73810.5,-3.49,-40.79,-41.23,0,*54
1484740823.57,49192,5.31,73800.5,-3.49,-41.17,-41.73,0,*5B
1484740824.81,49193,5.38,73806.8,-3.49,-41.23,-41.73,0,*5D
1484740826.1,49194,5.31,73800.8,-3.51,-40.97,-41.55,0,*59
1484740827.33,49195,5.31,73806.3,-3.49,-41.93,-42.37,0,*53
1484740828.54,49196,5.38,73806.8,-3.53,-42.13,-42.63,0,*51
1484740829.78,49197,5.38,73808.0,-3.53,-41.99,-42.45,0,*55
1484740831.06,49198,5.38,73806.3,-3.55,-41.67,-42.05,0,*59
1484740832.29,49199,5.38,73804.8,-3.55,-41.49,-41.99,0,*52
1484740833.54,49200,5.31,73804.3,-3.55,-41.23,-41.49,0,*50
1484740834.77,49201,5.38,73804.0,-3.55,-40.65,-41.11,0,*5F
1484740836.06,49202,5.31,73804.3,-3.55,-40.41,-40.85,0,*56
1484740837.32,49203,5.38,73804.0,-3.55,-40.59,-41.03,0,*51
1484740838.53,49204,5.38,73806.8,-3.57,-40.73,-41.17,0,*59
1484740839.81,49205,5.38,73806.0,-3.55,-40.41,-40.79,0,*52
1484740841.07,49206,5.38,73806.0,-3.55,-40.79,-41.11,0,*55
1484740842.32,49207,5.38,73806.8,-3.55,-40.79,-41.29,0,*5F
1484740843.57,49208,5.38,73806.8,-3.55,-40.47,-40.79,0,*59
1484740844.81,49209,5.38,73806.8,-3.55,-40.91,-41.41,0,*59
1484740846.04,49210,5.38,73804.5,-3.55,-40.91,-41.49,0,*59
1484740847.27,49211,5.38,73806.5,-3.55,-41.03,-41.49,0,*52
1484740848.52,49212,5.31,73802.5,-3.55,-40.97,-41.49,0,*5D
1484740849.76,49213,5.38,73806.5,-3.55,-40.91,-41.29,0,*5C
1484740851.02,49214,5.38,73804.3,-3.57,-40.97,-41.35,0,*52
1484740852.26,49215,5.31,73800.5,-3.57,-40.85,-41.29,0,*5D
1484740853.49,49216,5.38,73804.8,-3.55,-40.65,-41.03,0,*5A
1484740854.72,49217,5.38,73804.8,-3.55,-40.91,-41.49,0,*5E
1484740855.93,49218,5.38,73806.8,-3.57,-40.73,-41.11,0,*52
1484740857.15,49219,5.38,73806.3,-3.57,-39.91,-40.47,0,*53
1484740858.41,49220,5.31,73800.5,-3.55,-39.91,-40.29,0,*53
1484740859.68,49221,5.31,73800.5,-3.57,-39.79,-40.29,0,*56
1484740860.96,49222,5.38,73806.0,-3.55,-39.71,-40.21,0,*57
1484740862.22,49223,5.38,73802.0,-3.55,-40.29,-40.65,0,*55
1484740863.48,49224,5.38,73806.3,-3.55,-40.59,-41.03,0,*54
1484740864.71,49225,5.38,73804.0,-3.55,-40.65,-40.91,0,*50
1484740865.99,49226,5.38,73806.3,-3.55,-40.85,-41.23,0,*55
1484740867.23,49227,5.38,73806.5,-3.53,-40.59,-41.11,0,*52
1484740868.46,49228,5.38,73806.3,-3.53,-40.21,-40.65,0,*50
1484740869.72,49229,5.38,73806.0,-3.53,-40.41,-40.85,0,*59
1484740870.96,49230,5.31,73802.8,-3.55,-40.91,-41.29,0,*5D
1484740872.19,49231,5.38,73804.3,-3.55,-41.41,-41.99,0,*5B
1484740873.43,49232,5.38,73806.5,-3.57,-41.17,-41.67,0,*58
1484740874.64,49233,5.38,73804.3,-3.57,-41.29,-41.73,0,*51
1484740875.84,49234,5.38,73804.0,-3.57,-41.11,-41.49,0,*54
1484740877.1,49235,5.38,73804.3,-3.57,-41.35,-41.93,0,*54
1484740878.31,49236,5.31,73802.5,-3.57,-41.29,-41.73,0,*54
1484740879.55,49237,5.38,73804.0,-3.57,-41.55,-41.73,0,*5E
1484740880.79,49238,5.38,73806.8,-3.57,-40.85,-41.11,0,*59
1484740882.03,49239,5.38,73806.3,-3.59,-40.47,-40.91,0,*51
1484740883.28,49240,5.38,73804.0,-3.59,-40.97,-41.49,0,*56
1484740884.54,49241,5.38,73806.5,-3.59,-41.73,-42.31,0,*50
1484740885.8,49242,5.38,73804.3,-3.59,-41.49,-41.93,0,*51
1484740887.06,49243,5.38,73804.0,-3.61,-41.67,-42.19,0,*56
1484740888.33,49244,5.38,73806.8,-3.61,-41.81,-42.19,0,*59
1484740889.59,49245,5.38,73804.8,-3.61,-41.35,-41.81,0,*55
1484740890.8,49246,5.38,73802.8,-3.65,-41.29,-41.87,0,*59
1484740892.06,49247,5.31,73802.8,-3.67,-41.23,-41.61,0,*58
1484740893.33,49248,5.38,73806.8,-3.67,-40.59,-41.03,0,*5F
1484740894.59,49249,5.38,73806.5,-3.67,-40.85,-41.11,0,*5C
1484740895.83,49250,5.38,73806.3,-3.65,-40.85,-41.41,0,*53
1484740897.09,49251,5.38,73804.5,-3.67,-40.79,-41.41,0,*53
1484740898.32,49252,5.38,73806.3,-3.67,-41.29,-41.87,0,*5E
1484740899.56,49253,5.38,73804.5,-3.65,-41.61,-42.05,0,*58
1484740900.77,49254,5.38,73802.8,-3.65,-41.41,-41.87,0,*54
1484740902.01,49255,5.38,73804.8,-3.65,-41.11,-41.67,0,*5E
1484740903.28,49256,5.38,73806.5,-3.67,-41.11,-41.67,0,*5F
1484740904.52,49257,5.31,73802.5,-3.67,-41.61,-41.99,0,*58
1484740905.76,49258,5.38,73804.5,-3.67,-41.41,-41.87,0,*5A
1484740906.97,49259,5.31,73802.8,-3.69,-41.73,-42.13,0,*5A
1484740908.2,49260,5.31,73802.5,-3.71,-41.87,-42.13,0,*52
1484740909.48,49261,5.38,73806.0,-3.71,-41.35,-41.93,0,*51
1484740910.73,49262,5.38,73810.8,-3.71,-41.11,-41.35,0,*58
1484740911.96,49263,5.38,73806.3,-3.71,-40.65,-41.11,0,*5D
1484740913.2,49264,5.38,73804.3,-3.71,-40.73,-41.03,0,*5E
1484740914.43,49265,5.38,73806.3,-3.71,-41.03,-41.49,0,*57
1484740915.64,49266,5.38,73804.5,-3.69,-41.49,-41.87,0,*51
1484740916.93,49267,5.38,73804.3,-3.71,-41.93,-42.31,0,*50
1484740918.19,49268,5.38,73804.8,-3.71,-41.29,-41.67,0,*5E
1484740919.42,49269,5.38,73806.0,-3.71,-40.91,-41.29,0,*57
1484740920.68,49270,5.38,73804.3,-3.71,-41.11,-41.55,0,*5D
1484740921.92,49271,5.38,73804.8,-3.71,-40.47,-40.91,0,*57
1484740923.21,49272,5.38,73802.3,-3.73,-40.41,-40.79,0,*56
1484740924.48,49273,5.38,73806.0,-3.73,-40.41,-40.91,0,*51
1484740925.71,49274,5.38,73806.3,-3.71,-40.91,-41.49,0,*5D
1484740926.96,49275,5.38,73804.5,-3.71,-41.49,-41.93,0,*5F
1484740928.22,49276,5.38,73804.0,-3.71,-41.17,-41.67,0,*5C
1484740929.45,49277,5.38,73806.5,-3.71,-40.65,-41.03,0,*5B
1484740930.69,49278,5.38,73806.5,-3.71,-40.15,-40.65,0,*52
1484740931.9,49279,5.38,73806.3,-3.69,-40.53,-41.03,0,*59
1484740933.16,49280,5.38,73804.8,-3.71,-40.09,-40.65,0,*58
1484740934.42,49281,5.38,73806.0,-3.71,-40.29,-40.73,0,*5C
1484740935.66,49282,5.38,73806.0,-3.69,-41.03,-41.55,0,*5A
1484740936.92,49283,5.38,73804.3,-3.71,-41.11,-41.55,0,*51
1484740938.15,49284,5.38,73804.3,-3.69,-41.11,-41.55,0,*5F
1484740939.41,49285,5.38,73806.3,-3.71,-41.11,-41.55,0,*57
1484740940.62,49286,5.38,73806.8,-3.69,-40.73,-41.11,0,*58
1484740941.88,49287,5.38,73802.5,-3.71,-40.47,-40.85,0,*5B
1484740943.11,49288,5.38,73806.3,-3.71,-40.73,-41.11,0,*5F
1484740944.37,49289,5.38,73804.0,-3.71,-41.11,-41.67,0,*5A
1484740945.6,49290,5.38,73806.5,-3.71,-41.17,-41.73,0,*51
1484740946.83,49291,5.38,73806.0,-3.71,-41.29,-41.87,0,*56
1484740948.09,49292,5.38,73804.3,-3.73,-41.11,-41.55,0,*53
1484740949.38,49293,5.38,73806.8,-3.73,-40.97,-41.35,0,*5B
1484740950.64,49294,5.38,73806.3,-3.73,-40.79,-41.17,0,*5C
1484740951.89,49295,5.38,73806.0,-3.73,-40.15,-40.53,0,*56
1484740953.13,49296,5.38,73804.0,-3.73,-40.03,-40.53,0,*52
1484740954.39,49297,5.38,73804.0,-3.71,-40.35,-40.85,0,*5F
1484740955.62,49298,5.38,73806.5,-3.71,-40.65,-41.03,0,*5A
1484740956.88,49299,5.38,73806.5,-3.71,-40.85,-41.17,0,*50
1484740958.11,49300,5.38,73802.0,-3.69,-40.85,-41.29,0,*55
1484740959.35,49301,5.38,73804.3,-3.71,-40.73,-41.03,0,*5C
1484740960.58,49302,5.38,73804.5,-3.71,-40.73,-41.17,0,*5A
1484740961.84,49303,5.38,73806.5,-3.71,-41.17,-41.67,0,*5F
1484740963.09,49304,5.38,73806.3,-3.71,-41.29,-41.93,0,*5E
1484740964.31,49305,5.38,73804.8,-3.71,-41.11,-41.49,0,*53
1484740965.55,49306,5.38,73804.0,-3.73,-41.11,-41.41,0,*5A
1484740966.84,49307,5.38,73806.8,-3.73,-40.41,-40.79,0,*55
1484740968.09,49308,5.38,73804.8,-3.73,-40.21,-40.73,0,*56
1484740969.38,49309,5.38,73804.3,-3.73,-40.97,-41.23,0,*5E
1484740970.64,49310,5.38,73806.3,-3.73,-40.97,-41.41,0,*52
1484740971.93,49311,5.38,73800.8,-3.73,-40.97,-41.35,0,*50
1484740973.17,49312,5.38,73804.3,-3.73,-41.11,-41.41,0,*5F
1484740974.44,49313,5.38,73804.3,-3.73,-40.91,-41.35,0,*54
1484740975.64,49314,5.38,73804.5,-3.75,-41.11,-41.61,0,*5D
1484740976.9,49315,5.38,73806.8,-3.73,-41.55,-42.13,0,*5C
1484740978.17,49316,5.38,73804.0,-3.73,-41.23,-41.73,0,*5B
1484740979.43,49317,5.38,73806.8,-3.75,-41.23,-41.81,0,*51
1484740980.68,49318,5.38,73806.0,-3.77,-41.61,-42.19,0,*58
1484740981.92,49319,5.38,73806.5,-3.75,-41.23,-41.73,0,*52
1484740983.13,49320,5.38,73804.5,-3.75,-41.17,-41.73,0,*5F
1484740984.39,49321,5.38,73804.3,-3.75,-41.35,-41.81,0,*53
1484740985.62,49322,5.38,73804.8,-3.75,-41.11,-41.35,0,*59
1484740986.91,49323,5.38,73806.8,-3.77,-41.67,-42.19,0,*56
1484740988.16,49324,5.38,73804.3,-3.77,-41.61,-42.05,0,*5A
1484740989.37,49325,5.38,73804.8,-3.79,-40.47,-41.03,0,*55
1484740990.65,49326,5.38,73804.0,-3.77,-40.21,-40.59,0,*56
1484740991.9,49327,5.38,73804.5,-3.77,-40.21,-40.65,0,*58
1484740993.16,49328,5.38,73806.8,-3.77,-40.65,-40.97,0,*5A
1484740994.44,49329,5.38,73804.3,-3.77,-40.85,-41.23,0,*5B
1484740995.72,49330,5.38,73806.8,-3.77,-40.29,-40.85,0,*58
1484740997.01,49331,5.38,73808.0,-3.77,-40.59,-40.97,0,*5D
1484740998.25,49332,5.38,73804.8,-3.77,-40.47,-41.03,0,*5D
1484740999.5,49333,5.38,73806.3,-3.77,-40.97,-41.41,0,*57
1484741000.71,49334,5.38,73808.5,-3.79,-41.03,-41.49,0,*5A
1484741001.97,49335,5.38,73804.5,-3.77,-40.97,-41.29,0,*5F
1484741003.22,49336,5.38,73806.0,-3.77,-40.97,-41.29,0,*5C
1484741004.48,49337,5.38,73808.0,-3.77,-40.79,-41.17,0,*50
1484741005.76,49338,5.38,73806.3,-3.77,-40.29,-40.85,0,*50
1484741007.04,49339,5.38,73806.3,-3.77,-40.21,-40.59,0,*58
1484741008.27,49340,5.38,73804.5,-3.77,-40.65,-41.03,0,*58
1484741009.53,49341,5.38,73804.0,-3.77,-40.59,-41.03,0,*56
1484741010.79,49342,5.38,73806.5,-3.77,-40.85,-41.29,0,*5C
1484741012.02,49343,5.38,73804.0,-3.77,-41.17,-41.41,0,*59
1484741013.27,49344,5.38,73806.8,-3.77,-40.65,-41.23,0,*5E
1484741014.5,49345,5.38,73806.0,-3.79,-40.79,-41.17,0,*5B
1484741015.73,49346,5.38,73806.8,-3.79,-40.59,-41.03,0,*5F
1484741017.02,49347,5.38,73804.5,-3.77,-40.41,-40.79,0,*55
1484741018.28,49348,5.38,73804.3,-3.77,-40.47,-40.97,0,*5C
1484741019.49,49349,5.38,73806.5,-3.79,-41.03,-41.49,0,*50
1484741020.7,49350,5.38,73802.5,-3.79,-41.17,-41.41,0,*55
1484741021.95,49351,5.38,73810.5,-3.77,-40.85,-41.41,0,*50
1484741023.21,49352,5.38,73804.3,-3.77,-41.17,-41.67,0,*5D
1484741024.42,49353,5.38,73804.8,-3.79,-41.03,-41.41,0,*53
1484741025.68,49354,5.38,73804.0,-3.79,-40.85,-41.23,0,*5F
1484741026.92,49355,5.38,73804.5,-3.79,-40.97,-41.41,0,*59
1484741028.14,49356,5.38,73808.0,-3.79,-40.79,-41.29,0,*54
1484741029.37,49357,5.38,73806.8,-3.79,-40.79,-41.17,0,*58
1484741030.6,49358,5.38,73810.0,-3.79,-40.85,-41.29,0,*59
1484741031.84,49359,5.38,73806.3,-3.79,-41.23,-41.61,0,*59
1484741033.07,49360,5.38,73804.5,-3.79,-41.23,-41.61,0,*53
1484741034.3,49361,5.38,73804.0,-3.79,-40.97,-41.29,0,*50
1484741035.54,49362,5.38,73806.0,-3.79,-41.23,-41.61,0,*51
1484741036.75,49363,5.38,73804.5,-3.79,-41.87,-42.25,0,*5D
1484741037.98,49364,5.38,73804.5,-3.81,-41.29,-41.73,0,*59
1484741039.24,49365,5.38,73806.8,-3.81,-41.35,-41.87,0,*5E
1484741040.52,49366,5.38,73806.5,-3.81,-41.55,-42.05,0,*52
1484741041.73,49367,5.38,73806.0,-3.83,-41.49,-42.13,0,*5B
1484741042.98,49368,5.38,73804.5,-3.83,-41.55,-42.05,0,*5E
1484741044.18,49369,5.38,73806.0,-3.87,-41.29,-41.61,0,*51
1484741045.41,49370,5.38,73806.8,-3.83,-41.49,-41.93,0,*56
1484741046.65,49371,5.38,73806.3,-3.87,-41.61,-42.19,0,*58
1484741047.85,49372,5.38,73806.5,-3.87,-41.17,-41.61,0,*56
1484741049.08,49373,5.38,73802.5,-3.87,-41.55,-41.99,0,*56
1484741050.29,49374,5.38,73804.5,-3.87,-41.17,-41.61,0,*50
1484741051.52,49375,5.38,73804.5,-3.89,-41.49,-41.99,0,*53
1484741052.73,49376,5.38,73804.5,-3.87,-40.91,-41.49,0,*57
1484741054.02,49377,5.38,73802.8,-3.89,-40.97,-41.35,0,*55
1484741055.23,49378,5.38,73806.3,-3.87,-40.73,-41.17,0,*5E
1484741056.46,49379,5.38,73804.3,-3.87,-40.59,-41.11,0,*51
1484741057.76,49380,5.38,73806.3,-3.89,-41.23,-41.67,0,*54
1484741058.98,49381,5.38,73806.0,-3.87,-41.41,-41.93,0,*54
1484741060.22,49382,5.38,73802.8,-3.87,-41.35,-41.61,0,*59
1484741061.46,49383,5.38,73804.5,-3.89,-40.65,-41.03,0,*56
1484741062.72,49384,5.38,73804.5,-3.89,-40.03,-40.29,0,*58
1484741063.97,49385,5.38,73804.8,-3.87,-39.97,-40.21,0,*5C
1484741065.21,49386,5.38,73806.0,-3.87,-40.03,-40.41,0,*5A
1484741066.42,49387,5.38,73804.5,-3.87,-40.35,-40.91,0,*53
1484741067.62,49388,5.38,73806.8,-3.87,-40.53,-41.11,0,*55
1484741068.83,49389,5.38,73804.8,-3.87,-40.35,-40.73,0,*51
1484741070.06,49390,5.38,73804.3,-3.87,-40.21,-40.53,0,*5E
1484741071.33,49391,5.38,73806.0,-3.87,-40.41,-40.97,0,*51
1484741072.6,49392,5.38,73804.5,-3.87,-40.41,-40.97,0,*52
1484741073.83,49393,5.38,73804.5,-3.83,-41.35,-41.73,0,*5E
1484741075.04,49394,5.38,73804.3,-3.83,-41.11,-41.49,0,*56
1484741076.25,49395,5.38,73802.3,-3.83,-41.49,-41.87,0,*58
1484741077.48,49396,5.38,73808.3,-3.83,-41.67,-42.13,0,*59
1484741078.78,49397,5.38,73808.5,-3.89,-41.35,-41.67,0,*55
1484741080.01,49398,5.38,73806.0,-3.87,-40.97,-41.41,0,*59
1484741081.27,49399,5.38,73804.3,-3.89,-41.35,-41.61,0,*5D
1484741082.53,49400,5.38,73804.5,-3.89,-40.79,-41.17,0,*52
1484741083.77,49401,5.38,73800.5,-3.89,-40.65,-41.03,0,*5B
1484741085.06,49402,5.38,73800.8,-3.89,-40.79,-41.23,0,*57
1484741086.29,49403,5.38,73804.0,-3.89,-40.65,-41.17,0,*5C
1484741087.55,49404,5.38,73804.5,-3.89,-40.79,-41.03,0,*53
1484741088.82,49405,5.38,73804.0,-3.89,-40.59,-41.03,0,*50
1484741090.06,49406,5.38,73804.5,-3.89,-40.65,-41.03,0,*5C
1484741091.3,49407,5.38,73804.3,-3.89,-40.47,-41.03,0,*5D
1484741092.57,49408,5.38,73804.0,-3.89,-40.41,-41.03,0,*54
1484741093.8,49409,5.38,73806.0,-3.87,-40.21,-40.53,0,*59
1484741095.0,49410,5.38,73800.3,-3.87,-40.65,-41.17,0,*50
1484741096.24,49411,5.38,73800.8,-3.87,-40.85,-41.17,0,*5F
1484741097.44,49412,5.38,73806.5,-3.87,-40.35,-40.73,0,*54
1484741098.69,49413,5.38,73806.0,-3.87,-40.15,-40.41,0,*56
1484741099.94,49414,5.38,73806.0,-3.87,-40.21,-40.79,0,*5D
1484741101.15,49415,5.38,73806.8,-3.87,-40.35,-40.91,0,*5F
1484741102.39,49416,5.38,73804.3,-3.87,-40.91,-41.35,0,*5D
1484741103.68,49417,5.38,73804.8,-3.89,-40.41,-40.79,0,*56
1484741104.91,49418,5.38,73804.5,-3.87,-40.35,-40.79,0,*54
1484741106.16,49419,5.38,73804.3,-3.87,-40.21,-40.59,0,*52
1484741107.4,49420,5.38,73804.5,-3.87,-40.59,-41.11,0,*5A
1484741108.6,49421,5.38,73804.5,-3.87,-41.17,-41.61,0,*57
1484741109.87,49422,5.38,73804.5,-3.89,-41.03,-41.35,0,*5E
1484741111.13,49423,5.38,73806.8,-3.89,-40.59,-41.17,0,*51
1484741112.34,49424,5.38,73804.8,-3.87,-40.53,-41.11,0,*54
1484741113.57,49425,5.38,73800.5,-3.87,-40.59,-41.11,0,*5F
1484741114.8,49426,5.38,73804.8,-3.87,-40.79,-41.11,0,*5E
1484741116.01,49427,5.38,73804.0,-3.87,-40.35,-40.91,0,*5E
1484741117.22,49428,5.38,73804.0,-3.87,-40.53,-40.91,0,*51
1484741118.46,49429,5.38,73806.5,-3.87,-40.59,-41.11,0,*53
1484741119.68,49430,5.38,73806.5,-3.87,-40.79,-41.17,0,*5F
1484741120.9,49431,5.38,73806.5,-3.87,-40.91,-41.41,0,*5B
1484741122.16,49432,5.38,73802.8,-3.89,-41.67,-42.37,0,*5C
1484741123.45,49433,5.38,73806.8,-3.89,-40.97,-41.35,0,*52
1484741124.71,49434,5.38,73806.5,-3.89,-41.61,-42.05,0,*5D
1484741126.01,49435,5.38,73804.3,-3.89,-41.35,-41.67,0,*5A
1484741127.22,49436,5.38,73806.5,-3.91,-41.49,-41.87,0,*55
1484741128.45,49437,5.38,73804.5,-3.93,-41.49,-41.73,0,*5D
1484741129.69,49438,5.38,73804.8,-3.93,-40.47,-41.03,0,*5A
1484741130.93,49439,5.38,73804.3,-3.91,-40.59,-41.03,0,*56
1484741132.14,49440,5.38,73806.0,-3.91,-41.17,-41.41,0,*55
1484741133.37,49441,5.38,73806.3,-3.91,-40.97,-41.49,0,*55
1484741134.6,49442,5.38,73804.3,-3.91,-41.61,-42.05,0,*55
1484741135.86,49443,5.38,73804.5,-3.93,-41.55,-41.87,0,*58
1484741137.1,49444,5.38,73804.8,-3.93,-41.73,-42.25,0,*50
1484741138.36,49445,5.38,73802.5,-3.93,-41.87,-42.31,0,*5F
1484741139.63,49446,5.44,73808.5,-3.93,-41.41,-41.67,0,*56
1484741140.89,49447,5.38,73804.3,-3.97,-40.79,-41.29,0,*53
1484741142.16,49448,5.38,73806.5,-3.97,-41.55,-41.99,0,*58
1484741143.4,49449,5.38,73808.0,-3.97,-41.49,-41.73,0,*50
1484741144.64,49450,5.38,73802.8,-3.97,-41.73,-42.13,0,*54
1484741145.91,49451,5.38,73806.0,-3.97,-41.73,-42.19,0,*5F
1484741147.17,49452,5.38,73804.3,-3.97,-41.73,-42.19,0,*5C
1484741148.47,49453,5.38,73806.5,-3.97,-40.97,-41.35,0,*5B
1484741149.68,49454,5.44,73808.3,-3.99,-41.17,-41.61,0,*5A
1484741150.89,49455,5.38,73806.5,-3.99,-41.17,-41.49,0,*51
1484741152.12,49456,5.38,73806.8,-3.99,-40.79,-41.17,0,*50
1484741153.34,49457,5.38,73804.0,-3.99,-40.91,-41.29,0,*5A
1484741154.61,49458,5.38,73804.8,-3.99,-41.35,-41.81,0,*58
1484741155.82,49459,5.38,73804.0,-3.99,-41.29,-41.61,0,*5A
1484741157.06,49460,5.38,73804.5,-4.01,-41.03,-41.41,0,*5C
1484741158.33,49461,5.38,73804.5,-3.99,-40.97,-41.35,0,*54
1484741159.56,49462,5.38,73806.8,-3.99,-40.79,-41.29,0,*5A
1484741160.78,49463,5.38,73804.0,-3.99,-40.53,-40.91,0,*51
1484741162.01,49464,5.38,73806.5,-3.99,-40.97,-41.49,0,*5A
1484741163.22,49465,5.38,73806.5,-3.99,-41.29,-41.61,0,*55
1484741164.51,49466,5.38,73804.0,-4.01,-40.79,-41.35,0,*55
1484741165.77,49467,5.38,73806.0,-4.01,-40.85,-41.41,0,*54
1484741167.03,49468,5.38,73806.3,-4.01,-40.79,-41.11,0,*5D
1484741168.24,49469,5.38,73806.0,-3.99,-40.73,-41.29,0,*5B
1484741169.48,49470,5.44,73806.8,-4.01,-41.61,-41.99,0,*5C
1484741170.78,49471,5.38,73804.0,-4.01,-41.35,-41.67,0,*5D
1484741172.05,49472,5.38,73804.8,-4.01,-41.03,-41.55,0,*5A
1484741173.32,49473,5.38,73806.3,-4.03,-41.23,-41.55,0,*5B
1484741174.55,49474,5.44,73806.8,-4.03,-40.85,-41.41,0,*54
1484741175.79,49475,5.38,73806.3,-4.03,-40.59,-41.03,0,*52
1484741177.04,49476,5.38,73806.0,-4.03,-40.59,-41.03,0,*51
1484741178.27,49477,5.38,73806.5,-4.03,-40.65,-41.23,0,*5D
1484741179.53,49478,5.38,73802.0,-4.03,-40.79,-41.23,0,*5F
1484741180.77,49479,5.38,73802.8,-4.03,-40.59,-41.03,0,*5E
1484741182.01,49480,5.44,73806.3,-4.03,-40.47,-40.85,0,*58
1484741183.25,49481,5.38,73806.8,-4.03,-40.59,-41.03,0,*59
1484741184.47,49482,5.38,73806.8,-4.05,-40.73,-41.03,0,*54
1484741185.73,49483,5.38,73804.8,-4.03,-40.41,-40.79,0,*5E
1484741186.97,49484,5.44,73806.8,-4.03,-40.59,-41.03,0,*5C
1484741188.23,49485,5.38,73806.5,-4.03,-40.79,-41.23,0,*5D
1484741189.47,49486,5.38,73806.5,-4.03,-40.59,-41.03,0,*5E
1484741190.73,49487,5.38,73804.8,-4.03,-40.85,-41.35,0,*5B
1484741191.94,49488,5.38,73806.0,-4.03,-41.17,-41.61,0,*5F
1484741193.19,49489,5.38,73804.0,-4.05,-41.67,-41.87,0,*57
1484741194.43,49490,5.44,73810.3,-4.05,-40.85,-41.29,0,*56
1484741195.64,49491,5.38,73804.0,-4.05,-41.11,-41.61,0,*57
1484741196.86,49492,5.38,73804.8,-4.05,-41.41,-41.73,0,*52
1484741198.1,49493,5.44,73806.0,-4.05,-42.13,-42.69,0,*5F
1484741199.34,49494,5.38,73806.0,-4.05,-41.29,-41.67,0,*5F
1484741200.56,49495,5.38,73804.8,-4.05,-41.11,-41.49,0,*59
1484741201.79,49496,5.38,73804.8,-4.09,-41.55,-42.13,0,*5A
1484741203.02,49497,5.38,73806.5,-4.09,-41.73,-42.19,0,*55
1484741204.28,49498,5.38,73806.3,-4.11,-41.81,-42.37,0,*52
1484741205.54,49499,5.38,73802.0,-4.11,-41.81,-42.37,0,*53
1484741206.82,49500,5.44,73804.8,-4.13,-41.81,-42.31,0,*56
1484741208.06,49501,5.38,73806.0,-4.13,-41.55,-41.99,0,*5F
1484741209.29,49502,5.38,73806.0,-4.15,-41.17,-41.61,0,*5B
1484741210.51,49503,5.38,73806.0,-4.13,-40.73,-41.17,0,*5E
1484741211.75,49504,5.38,73804.8,-4.13,-40.59,-41.11,0,*57
1484741213.0,49505,5.44,73808.3,-4.13,-40.59,-40.91,0,*5F
1484741214.25,49506,5.44,73804.5,-4.13,-40.15,-40.41,0,*59
1484741215.5,49507,5.38,73806.8,-4.13,-40.41,-40.91,0,*54
1484741216.75,49508,5.44,73806.3,-4.13,-40.91,-41.35,0,*59
1484741218.04,49509,5.38,73806.5,-4.11,-40.59,-40.97,0,*57
1484741219.31,49510,5.44,73806.0,-4.11,-40.59,-41.11,0,*50
1484741220.55,49511,5.44,73804.8,-4.13,-40.59,-41.11,0,*53
1484741221.79,49512,5.44,73804.3,-4.13,-40.35,-40.59,0,*57
1484741223.03,49513,5.44,73804.3,-4.11,-40.15,-40.35,0,*5C
1484741224.33,49514,5.38,73806.8,-4.11,-40.09,-40.41,0,*55
1484741225.59,49515,5.38,73804.0,-4.11,-40.29,-40.73,0,*57
1484741226.87,49516,5.38,73804.0,-4.11,-40.97,-41.35,0,*52
1484741228.08,49517,5.44,73810.3,-4.09,-40.73,-41.29,0,*5D
1484741229.32,49518,5.44,73804.3,-4.09,-40.73,-40.97,0,*56
1484741230.55,49519,5.44,73806.8,-4.11,-41.29,-41.73,0,*5B
1484741231.84,49520,5.38,73802.8,-4.11,-41.81,-42.19,0,*5C
1484741233.11,49521,5.38,73804.0,-4.11,-40.73,-40.97,0,*55
1484741234.32,49522,5.44,73804.8,-4.13,-40.53,-41.11,0,*59
1484741235.58,49523,5.44,73804.5,-4.11,-41.55,-41.99,0,*5D
1484741236.85,49524,5.44,73808.8,-4.13,-41.67,-41.93,0,*53
1484741238.11,49525,5.44,73810.0,-4.13,-41.67,-41.81,0,*51
1484741239.35,49526,5.44,73804.3,-4.13,-40.97,-41.49,0,*58
1484741240.62,49527,5.44,73806.0,-4.15,-41.35,-41.87,0,*54
1484741241.86,49528,5.44,73810.3,-4.15,-41.17,-41.73,0,*50
1484741243.13,49529,5.44,73806.3,-4.15,-41.55,-41.99,0,*53
1484741244.37,49530,5.38,73804.0,-4.15,-41.61,-41.99,0,*5C
1484741245.66,49531,5.44,73806.8,-4.15,-41.35,-41.81,0,*55
1484741246.92,49532,5.44,73806.0,-4.15,-41.23,-41.61,0,*5F
1484741248.17,49533,5.44,73808.3,-4.17,-40.85,-41.41,0,*53
1484741249.4,49534,5.44,73806.8,-4.17,-40.47,-40.79,0,*50
1484741250.67,49535,5.44,73804.5,-4.17,-40.79,-41.35,0,*55
1484741251.93,49536,5.44,73810.5,-4.17,-40.79,-41.23,0,*51
1484741253.18,49537,5.44,73810.3,-4.17,-41.23,-41.73,0,*5B
1484741254.42,49538,5.44,73810.5,-4.17,-41.35,-41.73,0,*53
1484741255.64,49539,5.44,73810.0,-4.17,-41.03,-41.61,0,*54
1484741256.88,49540,5.44,73808.8,-4.17,-40.97,-41.41,0,*54
1484741258.11,49541,5.44,73806.5,-4.19,-41.29,-41.61,0,*5D
1484741259.37,49542,5.44,73804.0,-4.19,-40.85,-41.49,0,*53
1484741260.64,49543,5.44,73806.0,-4.19,-41.29,-41.67,0,*59
1484741261.88,49544,5.38,73804.5,-4.19,-41.11,-41.49,0,*59
1484741263.12,49545,5.38,73804.0,-4.19,-40.91,-41.41,0,*59
1484741264.36,49546,5.38,73806.8,-4.19,-40.91,-41.61,0,*58
1484741265.57,49547,5.44,73806.8,-4.17,-40.65,-41.17,0,*5D
1484741266.81,49548,5.44,73804.8,-4.19,-40.73,-41.11,0,*5D
1484741268.05,49549,5.38,73806.0,-4.19,-40.65,-40.91,0,*52
1484741269.31,49550,5.38,73804.8,-4.19,-40.85,-41.41,0,*58
1484741270.58,49551,5.38,73806.3,-4.17,-40.41,-40.79,0,*55
1484741271.83,49552,5.38,73806.0,-4.17,-40.47,-40.97,0,*50
1484741273.1,49553,5.44,73806.0,-4.17,-40.59,-40.85,0,*5D
1484741274.37,49554,5.44,73804.8,-4.17,-40.85,-41.23,0,*56
1484741275.61,49555,5.44,73804.0,-4.19,-40.91,-41.41,0,*58
1484741276.88,49556,5.44,73804.3,-4.19,-40.85,-41.29,0,*50
1484741278.14,49557,5.44,73806.8,-4.19,-41.49,-41.93,0,*51
1484741279.4,49558,5.44,73804.3,-4.19,-41.23,-41.61,0,*5F
1484741280.64,49559,5.44,73804.3,-4.19,-41.03,-41.61,0,*5C
1484741281.88,49560,5.44,73808.0,-4.19,-40.91,-41.49,0,*56
1484741283.12,49561,5.44,73808.0,-4.19,-41.29,-41.61,0,*5F
1484741284.35,49562,5.44,73806.0,-4.19,-41.11,-41.61,0,*57
1484741285.65,49563,5.44,73806.8,-4.19,-41.23,-41.67,0,*51
1484741286.91,49564,5.44,73804.8,-4.19,-40.53,-40.85,0,*5D
1484741288.15,49565,5.44,73806.0,-4.21,-40.35,-40.79,0,*54
1484741289.39,49566,5.38,73804.0,-4.21,-40.47,-40.79,0,*52
1484741290.62,49567,5.44,73806.5,-4.21,-40.79,-41.17,0,*57
1484741291.89,49568,5.44,73806.8,-4.17,-40.85,-41.35,0,*5E
1484741293.16,49569,5.44,73810.0,-4.19,-41.41,-41.81,0,*57
1484741294.41,49570,5.44,73808.3,-4.19,-41.29,-41.81,0,*51
1484741295.65,49571,5.44,73810.5,-4.19,-41.41,-41.87,0,*58
1484741296.95,49572,5.44,73806.5,-4.19,-41.93,-42.31,0,*5A
1484741298.2,49573,5.44,73804.8,-4.21,-41.35,-41.87,0,*52
1484741299.47,49574,5.38,73800.5,-4.23,-41.87,-42.31,0,*50
1484741300.76,49575,5.44,73808.3,-4.23,-40.97,-41.35,0,*56
1484741301.99,49576,5.38,73802.3,-4.23,-40.73,-41.11,0,*59
1484741303.25,49577,5.44,73808.8,-4.23,-40.79,-41.29,0,*59
1484741304.51,49578,5.44,73804.5,-4.23,-40.59,-41.11,0,*5F
1484741305.77,49579,5.44,73804.5,-4.23,-40.97,-41.49,0,*51
1484741307.04,49580,5.44,73808.5,-4.23,-40.91,-41.55,0,*5C